Flugplatz Frankfurt-Hahn

Bericht für EDFH

vom 25.09. um 20:20 UTC

Wind 10 kt aus 270°

Sichtweite 10 km oder mehr

schwacher Sprühregen

gering bewölkt in 1000 ft

aufgebrochene Bewölkung in 1600 ft

Temperatur 7.0°C

Taupunkt 6.0°C

Luftfeuchtigkeit 93%

Luftdruck 1000 hPa

EDFH 252020Z 27010KT 9999 -DZ FEW010 BKN016 07/06 Q1000

Prognose für EDFH

vom 25.09. um 17:00 UTC

Zwischen 18:00 UTC und 20:00 UTC

Wind 12 kt aus 260°

Sichtweite 10 km oder mehr

aufgebrochene Bewölkung in 2000 ft


Zwischen 18:00 UTC und 20:00 UTC zeitweise

Wind 15 kt aus 270° in Böen 25 kt

Sichtweite 4000 m

Regenschauer

aufgebrochene Bewölkung in 1000 ft


Zwischen 20:00 und 00:00 UTC übergehend zu

Wind 15 kt aus 270° in Böen 25 kt

Sichtweite 10 km oder mehr

aufgebrochene Bewölkung in 1000 ft


Am 26.09. zwischen 00:00 UTC und 18:00 UTC zeitweise

Sichtweite 2000 m

Regen

Sprühregen

bedeckt in 400 ft


Am 26.09. zwischen 09:00 und 11:00 UTC übergehend zu

Wind 11 kt aus 290°

Sichtweite 10 km oder mehr

aufgebrochene Bewölkung in 1000 ft

TAF EDFH 251700Z 2518/2618 26012KT 9999 BKN020 TEMPO 2518/2520 27015G25KT 4000 SHRA BKN010CB BECMG 2520/2524 27015G25KT BKN010 TEMPO 2600/2618 2000 RADZ OVC004 BECMG 2609/2611 29011KT
Impressum